World > North America > United States > Oregon

Monument, Oregon Regional Weather

Lat: 44.82N, Lon: 119.42W
Wx Zone: ORZ505Web Search

Pass this page to a friend. Tell them to point their camera at the QR Code near the bottom of this page.

Feedback


°F Click to change Monument hourly weather to Imperial units.Click to change Monument hourly weather to Metric units. °C
Monument Weather Map
UTC Time: 5/18/2021, 02:33
Your Time:

Monument, OR Regional Weather

Expires:202105180300;;286687
ASUS46 KPQR 180210
RWROR 

OREGON REGIONAL WEATHER ROUNDUP
NATIONAL WEATHER SERVICE PORTLAND OR
700 PM PDT MON MAY 17 2021

NOTE: "FAIR" INDICATES FEW OR NO CLOUDS BELOW 12,000 FEET WITH
NO SIGNIFICANT WEATHER AND/OR OBSTRUCTIONS TO VISIBILITY.


ORZ029>031-041-044-049-050-061>064-502-503-505>511-180300-
EASTERN OREGON

  
CITY           SKY/WX    TMP DP  RH WIND       PRES   REMARKS
MADRAS           N/A    N/A N/A N/A MISG        N/A                   
REDMOND        FAIR      68  38  33 W26G33    29.91R                  
BEND           FAIR      70  37  30 W15       29.93R                  
PRINEVILLE     FAIR      66  37  34 NW17G28   29.92R                  
KLAMATH FALLS  FAIR      69  36  29 W16       29.98S                  
LAKEVIEW       FAIR      72  34  24 W13G20    29.96R                  
HERMISTON      FAIR      77  35  21 W26G38    29.77R                  
PENDLETON      FAIR      71  30  21 W22G32    29.81R                  
JOHN DAY       FAIR      75  37  25 NW13G18   29.84R                  
MEACHAM        FAIR      64  36  35 VRB5      29.90R                  
LA GRANDE      FAIR      72  37  28 NW17      29.82R                  
BAKER CITY     FAIR      71  44  37 NW17G26   29.80R                  
BURNS          FAIR      78  31  17 W17G25    29.84S                  
ROME             N/A     84  26  12 W17G24    29.81S                  
ONTARIO        FAIR      84  43  23 SE5       29.70F                  
$$


OTHER REGIONAL REPORTS
  
CITY           SKY/WX    TMP DP  RH WIND       PRES   REMARKS
SEATTLE        LGT RAIN  52  49  89 SW9       29.92S FOG              
SPOKANE        FAIR      75  31  19 W18       29.74F                  
VANCOUVER BC   RAIN      54  52  94 SE5       29.85F                  
PRINCE GEORGE  PTSUNNY   50  37  62 SW3       29.70F                  
DAWSON CREEK   MOSUNNY   54  39  58 NE7       29.71S                  
WHITEHORSE     NOT AVBL                                               
BOISE          FAIR      84  30  14 N3        29.74F                  
REDDING        FAIR      82  50  32 S14       29.87S                  
SAN FRANCISCO  FAIR      57  47  69 W16G24    30.06S                  

$$

  

SKY/WX - Weather  TMP - Temperature  DP - Dew Point  RH - Relative Humidity
WIND - Wind Direction/Speed PRES - Barometric Pressure VSB - Visibility
WCI - Wind Chill Index E13G22 Wind - East Wind 13 mph/Gusts of 22 mph